Weather History for Gulkana, AK

Change the Weather History Date:

Thursday, November 22, 2012

  Actual Average Record
Temperature  
Mean Temperature -24 °F -  
Max Temperature -14 °F 15 °F 42 °F (2002)
Min Temperature -33 °F 0 °F -38 °F (2013)
Degree Days  
Heating Degree Days 88    
Moisture  
Dew Point -27 °F    
Average Humidity 74    
Maximum Humidity 78    
Minimum Humidity 65    
Precipitation  
Precipitation 0.00 in - - ()
Snow  
Snow 0.00 in - - ()
Snow Depth 7.00 in    
Sea Level Pressure  
Sea Level Pressure 30.09 in    
Wind  
Wind Speed 1 mph (NNW)    
Max Wind Speed 7 mph    
Max Gust Speed -    
Visibility 10 miles    
Events      
Averages and records for this station are not official NWS values.
T = Trace of Precipitation, MM = Missing Value Source: NWS Daily Summary

Daily Weather History Graph

Daily Weather History Graph

Search for Another Location

Airport:

Trip Planner

Search our weather history database for the weather conditions in past years. The results will help you decide how hot, cold, wet, or windy it might be!

Date:

Astronomy

Nov. 22, 2012 Rise Set
Actual Time 9:15 AM AKST 3:39 PM AKST
Civil Twilight 8:18 AM AKST 4:37 PM AKST
Nautical Twilight 7:20 AM AKST 5:35 PM AKST
Astronomical Twilight 6:26 AM AKST 6:28 PM AKST
Moon 1:55 PM AKST (11/22) 2:10 AM AKST (11/22)
Length of Visible Light 8h 19m
Length of Day
6h 24m
Waxing Gibbous, 72% of the Moon is Illuminated
Nov 22
Waxing Gibbous
Nov 28
Full
Dec 6
Last Quarter
Dec 12
New
Dec 19
First Quarter

Hourly Weather History & Observations

Time (AKST) Temp. Windchill Dew Point Humidity Pressure Visibility Wind Dir Wind Speed Gust Speed Precip Events Conditions
12:53 AM -29.9 °F - - N/A% 30.25 in 10.0 mi Calm Calm - N/A   Clear
1:53 AM -29.9 °F - - N/A% 30.24 in 10.0 mi Calm Calm - N/A   Clear
3:53 AM -29.9 °F - - N/A% 30.27 in 10.0 mi Calm Calm - N/A   Clear
4:53 AM -31.0 °F -43.3 °F - N/A% 30.28 in 10.0 mi NW 3.5 mph - N/A   Clear
5:53 AM -31.0 °F - - N/A% 30.28 in 10.0 mi Calm Calm - N/A   Clear
6:01 AM -31.0 °F - - N/A% 29.99 in 10.0 mi Calm Calm - N/A   Clear
6:53 AM -32.1 °F - - N/A% 30.28 in 10.0 mi Calm Calm - N/A   Clear
7:53 AM -32.1 °F -47.3 °F - N/A% 30.27 in 10.0 mi NW 4.6 mph - N/A   Scattered Clouds
8:53 AM -32.1 °F - - N/A% 30.26 in 10.0 mi Calm Calm - N/A   Scattered Clouds
9:53 AM -31.0 °F - - N/A% 30.25 in 10.0 mi Calm Calm - N/A   Scattered Clouds
10:53 AM -26.0 °F - -33.0 °F 69% 30.22 in 10.0 mi Calm Calm - N/A   Scattered Clouds
11:53 AM -18.0 °F - -26.0 °F 67% 30.16 in 10.0 mi Calm Calm - N/A   Scattered Clouds
12:53 PM -15.0 °F - -22.0 °F 71% 30.12 in 10.0 mi Calm Calm - N/A   Partly Cloudy
1:53 PM -15.0 °F - -20.0 °F 78% 30.08 in 10.0 mi Calm Calm - N/A   Partly Cloudy
2:53 PM -17.0 °F - -22.0 °F 78% 30.03 in 10.0 mi Calm Calm - N/A   Scattered Clouds
3:53 PM -23.1 °F - -27.9 °F 78% 30.01 in 10.0 mi Calm Calm - N/A   Scattered Clouds
4:53 PM -26.0 °F - -31.0 °F 77% 29.98 in 10.0 mi Calm Calm - N/A   Scattered Clouds
5:53 PM -25.1 °F - -29.9 °F 78% 29.96 in 10.0 mi Calm Calm - N/A   Scattered Clouds
6:53 PM -29.0 °F -43.8 °F -34.1 °F 77% 29.97 in 10.0 mi North 4.6 mph - N/A   Scattered Clouds
7:53 PM -27.9 °F -39.8 °F -34.1 °F 73% 29.95 in 10.0 mi North 3.5 mph - N/A   Partly Cloudy
8:53 PM -20.9 °F -38.1 °F -26.0 °F 77% 29.94 in 10.0 mi NNE 6.9 mph - N/A   Mostly Cloudy
9:27 PM -20.2 °F - -25.6 °F 76% 29.66 in 10.0 mi Calm Calm - N/A   Overcast
9:53 PM -20.0 °F - -25.1 °F 78% 29.94 in 10.0 mi Calm Calm - N/A   Clear
10:53 PM -18.0 °F - -23.1 °F 78% 29.93 in 10.0 mi Calm Calm - N/A   Clear
11:53 PM -18.0 °F - -23.1 °F 78% 29.91 in 10.0 mi Calm Calm - N/A   Clear